Location: Waco, TX
(31.5480°N, 97.1670°W)
Time: 22:27:20
(UTC-05:00)

ISS - Pass Details

Date: 27 May 2017
Orbit: 401 x 408 km, 51.6° (Epoch: 24 June)

Event Time Altitude Azimuth Distance (km) Brightness Sun altitude
Rises 03:18:02 0° 333° (NNW) 2,328 0.4 -30.7°
Enters shadow 03:20:36 - 356° (N) 1,531 -0.3 -30.4°
Reaches altitude 10° 03:20:54 10° 0° (N) 1,463 - -30.3°
Maximum altitude 03:22:42 14° 33° (NNE) 1,250 - -30.2°
Drops below altitude 10° 03:24:29 10° 67° (ENE) 1,457 - -29.9°
Exits shadow 03:24:40 - 69° (ENE) 1,497 -0.4 -29.9°
Sets 03:27:20 0° 94° (E) 2,311 0.4 -29.6°
